Home   Weather   Shreveport   Past weeks

Flag for USA Past Weather in Shreveport, Louisiana, USA — Yesterday and Last 2 Weeks

Now
94 °F

Passing clouds.


Feels Like: 103 °F
Forecast: 75 / 91 °F
Wind: 7 mph from East

Location: Shreveport Regional Airport

Current Time: Aug 30, 2016 at 5:54:18 PM

Latest Report: Aug 30, 2016 at 4:56 PM


Visibility: 10 mi

Pressure: 29.91 "Hg

Humidity: 51%

Dew Point: 73 °F

Location of ShreveportLocation

Past Weather in Shreveport — Graph

°F

Shreveport Temperature Yesterday

Maximum temperature yesterday: 94 °F (at 1:56 PM)
Minimum temperature yesterday: 75 °F (at 5:56 AM)
Average temperature yesterday: 83 °F

High & Low Weather Summary for the Past Weeks

 TemperatureHumidityPressure
High94 °F (Aug 27, 2:56 PM)100% (Aug 16, 3:56 AM)30.19 "Hg (Aug 16, 3:56 AM)
Low72 °F (Aug 23, 3:56 AM)44% (Aug 27, 3:56 PM)29.82 "Hg (Aug 20, 3:56 PM)
Average80 °F86%30.03 "Hg
* Reported Aug 15 3:56 PM — Aug 30 3:56 PM, Shreveport, Weather by CustomWeather, © 2016

Note: Actual official high and low records may vary slightly from our data, if they occured in-between our weather recording intervals... More about our weather records

Advertising

Shreveport Weather History for the Previous 24 Hours

Scroll right to see more
 ConditionsComfort  
Time TempWeatherWind HumidityBarometerVisibility
3:56 PM
Tue, Aug 30
94 °FPassing clouds.9 mph49%29.93 "Hg10 mi
2:56 PM92 °FSunny.7 mph54%29.96 "Hg10 mi
1:56 PM91 °FBroken clouds.9 mph56%29.98 "Hg10 mi
12:56 PM93 °FScattered clouds.7 mph52%29.99 "Hg10 mi
11:56 AM92 °FPassing clouds.8 mph60%30.01 "Hg10 mi
10:56 AM89 °FScattered clouds.7 mph61%30.01 "Hg10 mi
9:56 AM86 °FSunny.7 mph72%30.01 "Hg10 mi
8:56 AM82 °FPassing clouds.7 mph79%30.01 "Hg10 mi
7:56 AM78 °FScattered clouds.7 mph90%30.00 "Hg10 mi
6:56 AM76 °FPassing clouds.5 mph97%29.99 "Hg10 mi
5:56 AM77 °FClear.6 mph94%29.99 "Hg10 mi
4:56 AM77 °FPassing clouds.3 mph96%29.98 "Hg10 mi
3:56 AM77 °FPassing clouds.3 mph94%29.98 "Hg10 mi
2:56 AM76 °FPassing clouds.6 mph94%30.00 "Hg10 mi
1:56 AM77 °FClear.6 mph90%30.00 "Hg10 mi
12:56 AM77 °FPassing clouds.5 mph90%30.00 "Hg10 mi
11:56 PM
Mon, Aug 29
78 °FHigh level clouds.5 mph87%30.01 "Hg10 mi
10:56 PM78 °FOvercast.3 mph87%30.00 "Hg10 mi
9:56 PM79 °FHigh level clouds.5 mph88%29.99 "Hg10 mi
8:56 PM80 °FPassing clouds.5 mph87%29.98 "Hg10 mi
7:56 PM83 °FPassing clouds.6 mph77%29.98 "Hg10 mi
6:56 PM84 °FPartly sunny.6 mph74%29.97 "Hg10 mi
5:56 PM87 °FBroken clouds.No wind61%29.96 "Hg10 mi
Weather by CustomWeather, © 2016

See weather overviewHow to use our weather pages